COSMOS 2535 DEB, 44641

Orbit data source: Space-Track

COSMOS 2535 DEB, 44641 is space debris in SSO originally from a launch on Wed, 10 Jul 2019 UTC launched from the Plesetsk Missile And Space Complex (PKMTR). Debris objects in space refer to the collection of defunct objects orbiting the Earth. Examples of debris include non-operational satellites, rocket bodies, and fragments generated from explosions, collisions, or faulty payload assembly.

Loading next visibility...
Identifier
44641, 2019-039M
Orbit
SSO
Country
Flag of CISCIS
Related business
Manufacturer
Unknown
Mission
Spacecraft
Bus & Motor
Unknown
Mass
Unknown
Launch date (UTC)
2019-07-10 (7 years ago)
Launch vehicle
Unknown
Launch site
Plesetsk Missile And Space Complex (PKMTR)
Object type
Payload
Rocket body
Debris
Shape & HBR
Unknown shape, 0.1 m
Radar Cross Section
Small (<0.1 m²)

Expand to show TLE details & history
Last TLE update: 2 days ago

TLE from 2 days ago
0 COSMOS 2535 DEB
1 44641U 19039M   26072.64200634  .00024203  00000-0  86843-3 0  9996
2 44641  97.5613 144.8559 0014573 308.0221  51.9702 15.28591951352510
Epoch: 2026-03-13T15:24Z
TLE epoch observation values (Epoch: 2026-03-13T15:24:29.347Z)
Latitude
-0.00005°
Longitude
102.45901°
Altitude
476.968 km
Speed
7.631 km/s
True Right ascension
09h 39m 25s
True Declination
0° 00' 00"
Sunlit
Object was in full shadow at epoch
Visualization orbit readout
Latitude
Unknown
Longitude
Unknown
Altitude
Unknown
Speed
Unknown
Apparent Right ascension
Unknown
Apparent Declination
Unknown
Sunlit
N/A
Visualization observer readout
Local Sidereal Time
02:43:48
Azimuth
Unknown
Elevation
Unknown
Doppler factor
Unknown
Orbital elements
Apogee altitude
486.972 km
Perigee altitude
466.992 km
Semi-major axis
6,855.119 km
Eccentricity
0.00146
Inclination
97.5613°
RAAN
144.8559°
Arg. of periapsis
308.0221°
True anomaly
52.10189°
Mean anomaly
51.9702°
Eccentric anomaly
52.03603°
Mean motion
3.82402 °/min
Orbital period
94.14 mins
BSTAR
0.00086843
Loading maneuver chart data...
Computing Atmospheric mass density...

Documentation

Showing up to 5 results
|